Flag for U.S.A. Weather past 2 weeks in Tallahassee, Florida, U.S.A.

Now
70 °F

Sunny.


Feels Like: 76 °F
Forecast: 42 / 68 °F
Wind: No wind

Location: Tallahassee Regional Airport

Current Time: Mar 29, 2015 at 6:32:30 PM

Latest Report: Mar 29, 2015 at 5:53 PM


Visibility: 10 mi

Pressure: 30.27 "Hg

Humidity: 29%

Dew point: 36 °F

Location of TallahasseeLocation

Historic Weather in Tallahassee — Graph

°F

Tallahassee temperature yesterday

Maximum temperature yesterday: 65 °F (at 4:53 PM)
Minimum temperature yesterday: 43 °F (at 3:53 AM)
Average temperature yesterday: 54 °F

Past Weeks' High & Low Weather Summary

 TemperatureHumidityPressure
High89 °F (Mar 17, 3:53 PM)100% (Mar 21, 8:53 PM)30.40 "Hg (Mar 21, 8:53 PM)
Low42 °F (Mar 29, 2:53 AM)22% (Mar 16, 12:53 PM)29.78 "Hg (Mar 27, 4:53 AM)
Average68 °F70%30.05 "Hg
* Reported Mar 14 4:53 PM — Mar 29 4:53 PM, Tallahassee, Weather by CustomWeather, © 2015

Note: Actual official high and low records may vary slightly from our data, if they occured in-between our weather recording intervals... More about our weather records

Advertising

Tallahassee weather history for previous 24 hours

 ConditionsComfort  
Time TempWeatherWind HumidityBarometerVisibility
4:53 PM
Sun, Mar 29
69 °FSunny.No wind29%30.28 "Hg10 mi
3:53 PM68 °FSunny.6 mph27%30.30 "Hg10 mi
2:53 PM67 °FSunny.6 mph26%30.32 "Hg10 mi
1:53 PM65 °FSunny.5 mph26%30.36 "Hg10 mi
12:53 PM63 °FSunny.8 mph26%30.37 "Hg10 mi
11:53 AM60 °FSunny.8 mph26%30.40 "Hg10 mi
10:53 AM57 °FPassing clouds.7 mph29%30.40 "Hg10 mi
9:53 AM54 °FPassing clouds.9 mph31%30.38 "Hg10 mi
8:53 AM50 °FPassing clouds.8 mph44%30.37 "Hg10 mi
7:53 AM44 °FPassing clouds.No wind68%30.35 "Hg10 mi
6:53 AM46 °FPassing clouds.3 mph63%30.32 "Hg10 mi
5:53 AM45 °FOvercast.5 mph71%30.30 "Hg10 mi
4:53 AM42 °FClear.No wind73%30.29 "Hg10 mi
3:53 AM43 °FClear.No wind74%30.29 "Hg10 mi
2:53 AM42 °FClear.No wind79%30.28 "Hg10 mi
1:53 AM44 °FClear.No wind76%30.29 "Hg10 mi
12:53 AM47 °FClear.3 mph66%30.28 "Hg10 mi
11:53 PM
Sat, Mar 28
51 °FClear.3 mph56%30.26 "Hg10 mi
10:53 PM50 °FClear.3 mph61%30.25 "Hg10 mi
9:53 PM52 °FClear.No wind55%30.22 "Hg10 mi
8:53 PM55 °FPassing clouds.3 mph47%30.20 "Hg10 mi
7:53 PM60 °FScattered clouds.6 mph33%30.18 "Hg10 mi
6:53 PM63 °FPassing clouds.10 mph28%30.17 "Hg10 mi
Weather by CustomWeather, © 2015

See weather overviewHow to use our weather pages